QPF
0.00 0.00 0.00 0.00 0.00 0.00 0.00 0.00 0.00 0.00 0.00 0.00 0.00 0.00 0.00 0.00 0.00 0.00 0.00 0.00 0.00 0.00 0.00 0.00 0.00 0.00 0.00 0.00 0.00 0.00 0.00 0.00 0.00 0.00 0.00 0.00 0.00 0.00 0.00 0.00 0.00 0.00 0.00 0.00
0.00 0.00 0.00 0.00 0.00 0.00 0.00 0.00 0.00 0.00 0.00 0.00 0.00 0.00 0.00 0.00 0.00 0.00 0.00 0.00 0.00 0.00 0.00 0.00 0.00 0.00 0.00 0.00 0.00 0.00 0.00 0.00 0.00 0.00 0.00 0.00 0.00 0.00 0.00 0.00 0.00 0.00 0.00 0.00
0.00 0.00 0.00 0.00 0.00 0.00 0.00 0.00 0.00 0.00 0.00 0.00 0.00 0.00 0.00 0.00 0.00 0.00 0.00 0.00 0.00 0.00 0.00 0.00 0.00 0.00 0.00 0.00 0.00 0.00 0.00 0.00 0.00 0.00 0.00 0.00 0.00 0.00 0.00 0.00 0.00 0.00 0.00 0.00
0.00 0.00 0.00 0.00 0.00 0.00 0.00 0.00 0.00 0.00 0.00 0.00 0.00 0.00 0.00 0.00 0.00 0.00 0.00 0.00 0.00 0.00 0.00 0.00 0.00 0.00 0.00 0.00 0.00 0.00 0.00 0.00 0.00 0.00 0.00 0.00 0.00 0.00 0.00 0.00 0.00 0.00 0.00 0.00
0.00 0.00 0.00 0.00 0.00 0.00 0.00 0.00 0.00 0.00 0.00 0.00 0.00 0.00 0.00 0.00 0.00 0.00 0.00 0.00 0.00 0.00 0.00 0.00 0.00 0.00 0.00 0.00 0.00 0.00 0.00 0.00 0.00 0.00 0.00 0.00 0.00 0.00 0.00 0.00 0.00 0.00 0.00 0.00
0.00 0.00 0.00 0.00 0.00 0.00 0.00 0.00 0.00 0.00 0.00 0.00 0.00 0.00 0.00 0.00 0.00 0.00 0.00 0.00 0.00 0.00 0.00 0.00 0.00 0.00 0.00 0.00 0.00 0.00 0.00 0.00 0.00 0.00 0.00 0.00 0.00 0.00 0.00 0.00 0.00 0.00 0.00 0.00
0.00 0.00 0.00 0.00 0.00 0.00 0.00 0.00 0.00 0.00 0.00 0.00 0.00 0.00 0.00 0.00 0.00 0.00 0.00 0.00 0.00 0.00 0.00 0.00 0.00 0.00 0.00 0.00 0.00 0.00 0.00 0.00 0.00 0.00 0.00 0.00 0.00 0.00 0.00 0.00 0.00 0.00 0.00 0.00
0.00 0.00 0.00 0.00 0.00 0.00 0.00 0.00 0.00 0.00 0.00 0.00 0.00 0.00 0.00 0.00 0.00 0.00 0.00 0.00 0.00 0.00 0.00 0.00 0.00 0.00 0.00 0.00 0.00 0.00 0.00 0.00 0.00 0.00 0.00 0.00 0.00 0.00 0.00 0.00 0.00 0.00 0.00 0.00
0.00 0.00 0.00 0.00 0.00 0.00 0.00 0.00 0.00 0.00 0.00 0.00 0.00 0.00 0.00 0.00 0.00 0.00 0.00 0.00 0.00 0.00 0.00 0.00 0.00 0.00 0.00 0.00 0.00 0.00 0.00 0.00 0.00 0.00 0.00 0.00 0.00 0.00 0.00 0.00 0.00 0.00 0.00 0.00
0.00 0.00 0.00 0.00 0.00 0.00 0.00 0.00 0.00 0.00 0.00 0.00 0.00 0.00 0.00 0.00 0.00 0.00 0.00 0.00 0.00 0.00 0.00 0.00 0.00 0.00 0.00 0.00 0.00 0.00 0.00 0.00 0.00 0.00 0.00 0.00 0.00 0.00 0.00 0.00 0.00 0.00 0.00 0.00
0.00 0.00 0.00 0.00 0.00 0.00 0.00 0.00 0.00 0.00 0.00 0.00 0.00 0.00 0.00 0.00 0.00 0.00 0.00 0.00 0.00 0.00 0.00 0.00 0.00 0.00 0.00 0.00 0.00 0.00 0.00 0.00 0.00 0.00 0.00 0.00 0.00 0.00 0.00 0.00 0.00 0.00 0.00 0.00
0.00 0.00 0.00 0.00 0.00 0.00 0.00 0.00 0.00 0.00 0.00 0.00 0.00 0.00 0.00 0.00 0.00 0.00 0.00 0.00 0.00 0.00 0.00 0.00 0.00 0.00 0.00 0.00 0.00 0.00 0.00 0.00 0.00 0.00 0.00 0.00 0.00 0.00 0.00 0.00 0.00 0.00 0.00 0.00
0.00 0.00 0.00 0.00 0.00 0.00 0.00 0.00 0.00 0.00 0.00 0.00 0.00 0.00 0.00 0.00 0.00 0.00 0.00 0.00 0.00 0.00 0.00 0.00 0.00 0.00 0.00 0.00 0.00 0.00 0.00 0.00 0.00 0.00 0.00 0.00 0.00 0.00 0.00 0.00 0.00 0.00 0.00 0.00
0.00 0.00 0.00 0.00 0.00 0.00 0.00 0.00 0.00 0.00 0.00 0.00 0.00 0.00 0.00 0.00 0.00 0.00 0.00 0.00 0.00 0.00 0.00 0.00 0.00 0.00 0.00 0.00 0.00 0.00 0.00 0.00 0.00 0.00 0.00 0.00 0.00 0.00 0.00 0.00 0.00 0.00 0.00 0.00
0.00 0.00 0.00 0.00 0.00 0.00 0.00 0.00 0.00 0.00 0.00 0.00 0.00 0.00 0.00 0.00 0.00 0.00 0.00 0.00 0.00 0.00 0.00 0.00 0.00 0.00 0.00 0.00 0.00 0.00 0.00 0.00 0.00 0.00 0.00 0.00 0.00 0.00 0.00 0.00 0.00 0.00 0.00 0.00
0.00 0.00 0.00 0.00 0.00 0.00 0.00 0.00 0.00 0.00 0.00 0.00 0.00 0.00 0.00 0.00 0.00 0.00 0.00 0.00 0.00 0.00 0.00 0.00 0.00 0.00 0.00 0.00 0.00 0.00 0.00 0.00 0.00 0.00 0.00 0.00 0.00 0.00 0.00 0.00 0.00 0.00 0.00 0.00
0.00 0.00 0.00 0.00 0.00 0.00 0.00 0.00 0.00 0.00 0.00 0.00 0.00 0.00 0.00 0.00 0.00 0.00 0.00 0.00 0.00 0.00 0.00 0.00 0.00 0.00 0.00 0.00 0.00 0.00 0.00 0.00 0.00 0.00 0.00 0.00 0.00 0.00 0.00 0.00 0.00 0.00 0.00 0.00
0.00 0.00 0.00 0.00 0.00 0.00 0.00 0.00 0.00 0.00 0.00 0.00 0.00 0.00 0.00 0.00 0.00 0.00 0.00 0.00 0.00 0.00 0.00 0.00 0.00 0.00 0.00 0.00 0.00 0.00 0.00 0.00 0.00 0.00 0.00 0.00 0.00 0.00 0.00 0.00 0.00 0.00 0.00 0.00
0.00 0.00 0.00 0.00 0.00 0.00 0.00 0.00 0.00 0.00 0.00 0.00 0.00 0.00 0.00 0.00 0.00 0.00 0.00 0.00 0.00 0.00 0.00 0.00 0.00 0.00 0.00 0.00 0.00 0.00 0.00 0.00 0.00 0.00 0.00 0.00 0.00 0.00 0.00 0.00 0.00 0.00 0.00 0.00
0.00 0.00 0.00 0.00 0.00 0.00 0.00 0.00 0.00 0.00 0.00 0.00 0.00 0.00 0.00 0.00 0.00 0.00 0.00 0.00 0.00 0.00 0.00 0.00 0.00 0.00 0.00 0.00 0.00 0.00 0.00 0.00 0.00 0.00 0.00 0.00 0.00 0.00 0.00 0.00 0.00 0.00 0.00 0.00
0.00 0.00 0.00 0.00 0.00 0.00 0.00 0.00 0.00 0.00 0.00 0.00 0.00 0.00 0.00 0.00 0.00 0.00 0.00 0.00 0.00 0.00 0.00 0.00 0.00 0.00 0.00 0.00 0.00 0.00 0.00 0.00 0.00 0.00 0.00 0.00 0.00 0.00 0.00 0.00 0.00 0.00 0.00 0.00
0.00 0.00 0.00 0.00 0.00 0.00 0.00 0.00 0.00 0.00 0.00 0.00 0.00 0.00 0.00 0.00 0.00 0.00 0.00 0.00 0.00 0.00 0.00 0.00 0.00 0.00 0.00 0.00 0.00 0.00 0.00 0.00 0.00 0.00 0.00 0.00 0.00 0.00 0.00 0.00 0.00 0.00 0.00 0.00
0.00 0.00 0.00 0.00 0.00 0.00 0.00 0.00 0.00 0.00 0.00 0.00 0.00 0.00 0.00 0.00 0.00 0.00 0.00 0.00 0.00 0.00 0.00 0.00 0.00 0.00 0.00 0.00 0.00 0.00 0.00 0.00 0.00 0.00 0.00 0.00 0.00 0.00 0.00 0.00 0.00 0.00 0.00 0.00
0.00 0.00 0.00 0.00 0.00 0.00 0.00 0.00 0.00 0.00 0.00 0.00 0.00 0.00 0.00 0.00 0.00 0.00 0.00 0.00 0.00 0.00 0.00 0.00 0.00 0.00 0.00 0.00 0.00 0.00 0.00 0.00 0.00 0.00 0.00 0.00 0.00 0.00 0.00 0.00 0.00 0.00 0.00 0.00
0.00 0.00 0.00 0.00 0.00 0.00 0.00 0.00 0.00 0.00 0.00 0.00 0.00 0.00 0.00 0.00 0.00 0.00 0.00 0.00 0.00 0.00 0.00 0.00 0.00 0.00 0.00 0.00 0.00 0.00 0.00 0.00 0.00 0.00 0.00 0.00 0.00 0.00 0.00 0.00 0.00 0.00 0.00 0.00
0.00 0.00 0.00 0.00 0.00 0.00 0.00 0.00 0.00 0.00 0.00 0.00 0.00 0.00 0.00 0.00 0.00 0.00 0.00 0.00 0.00 0.00 0.00 0.00 0.00 0.00 0.00 0.00 0.00 0.00 0.00 0.00 0.00 0.00 0.00 0.00 0.00 0.00 0.00 0.00 0.00 0.00 0.00 0.00
MSLP
1014.29 1013.84 1012.51 1012.07 1012.45 1011.82 1011.25 1011.34 1011.01 1011.04 1011.90 1012.55 1012.08 1011.86 1012.06 1013.62 1014.59 1015.03 1015.97 1017.04 1018.11 1019.25 1020.51 1021.14 1021.63 1022.32 1022.63 1022.90 1023.07 1023.25 1023.36 1023.63 1023.58 1023.64 1023.91 1024.10 1024.78 1025.31 1025.72 1026.22 1026.58 1026.77 1026.89 1026.89
1014.35 1012.90 1012.01 1012.19 1012.38 1012.10 1011.98 1011.81 1011.46 1011.42 1011.96 1013.01 1012.02 1011.42 1011.61 1012.31 1013.65 1014.56 1015.64 1016.85 1018.09 1019.54 1020.42 1021.17 1021.66 1022.41 1022.82 1023.15 1023.33 1023.53 1023.63 1023.76 1023.87 1023.87 1024.07 1024.40 1025.09 1025.85 1026.46 1027.01 1027.29 1027.55 1027.77 1027.94
1012.31 1011.36 1011.78 1012.16 1012.53 1012.50 1012.21 1011.96 1011.86 1011.90 1012.23 1012.93 1012.36 1010.88 1010.85 1011.38 1013.37 1015.09 1016.11 1016.97 1018.18 1019.30 1020.27 1021.14 1021.69 1022.24 1022.91 1023.32 1023.51 1023.63 1023.84 1023.91 1024.05 1024.21 1024.59 1025.10 1025.69 1026.27 1026.96 1027.50 1027.85 1028.14 1028.19 1028.31
1012.11 1011.56 1012.12 1012.14 1012.41 1012.83 1012.06 1012.00 1012.53 1012.69 1013.04 1012.25 1012.46 1009.64 1009.69 1010.39 1013.11 1014.85 1016.22 1017.35 1018.37 1019.44 1020.49 1021.29 1021.81 1022.24 1022.86 1023.35 1023.64 1023.79 1023.91 1024.07 1024.22 1024.18 1024.58 1025.10 1025.91 1026.71 1027.70 1028.30 1028.88 1029.25 1029.49 1029.67
1010.99 1011.66 1012.01 1012.00 1011.83 1012.72 1012.37 1012.82 1013.21 1013.37 1013.33 1012.89 1012.34 1012.25 1009.58 1010.63 1012.44 1013.69 1015.55 1017.08 1018.37 1019.70 1020.60 1021.32 1022.04 1022.70 1023.22 1023.58 1023.93 1024.34 1024.56 1024.74 1024.84 1024.97 1025.39 1025.89 1026.46 1027.27 1027.90 1028.43 1028.93 1029.42 1029.93 1030.35
1011.95 1012.63 1012.33 1012.04 1012.61 1012.86 1013.47 1013.87 1014.41 1014.59 1014.12 1012.31 1012.05 1011.99 1008.39 1009.79 1010.58 1012.39 1015.04 1016.70 1018.03 1019.54 1020.66 1021.67 1022.55 1023.21 1023.68 1024.08 1024.39 1024.77 1025.02 1025.26 1025.46 1025.70 1026.14 1026.65 1027.18 1027.86 1028.50 1029.12 1029.61 1030.10 1030.46 1030.84
1011.82 1011.68 1012.28 1012.52 1012.94 1013.80 1013.64 1013.91 1014.33 1014.46 1014.04 1011.74 1011.29 1010.90 1008.66 1009.66 1010.89 1012.01 1014.32 1016.32 1017.79 1019.00 1020.20 1021.50 1022.45 1023.17 1023.84 1024.33 1024.77 1025.15 1025.40 1025.64 1026.02 1026.39 1026.81 1027.23 1027.72 1028.39 1028.95 1029.52 1030.16 1030.63 1030.98 1031.45
1010.02 1009.90 1010.76 1011.41 1010.94 1011.66 1012.71 1012.98 1013.19 1013.47 1013.39 1012.03 1012.09 1010.29 1009.41 1010.81 1011.49 1012.56 1014.47 1016.34 1017.85 1019.07 1020.13 1021.27 1022.14 1022.87 1023.58 1024.17 1024.62 1025.05 1025.48 1025.99 1026.56 1026.97 1027.37 1027.89 1028.31 1028.86 1029.39 1029.85 1030.26 1030.72 1031.75 1032.24
1009.39 1009.44 1009.88 1010.63 1010.95 1011.37 1012.21 1012.39 1013.22 1014.24 1014.46 1013.17 1010.52 1009.68 1010.24 1011.37 1012.33 1013.08 1014.51 1016.20 1017.60 1018.72 1019.82 1020.95 1022.02 1022.85 1023.57 1024.19 1024.77 1025.34 1025.84 1026.37 1026.91 1027.41 1027.86 1028.34 1028.77 1029.18 1029.68 1030.41 1031.06 1031.69 1031.73 1031.96
1009.62 1010.00 1010.56 1011.37 1011.81 1011.45 1011.52 1012.00 1013.50 1014.44 1013.24 1011.57 1008.85 1008.43 1008.58 1010.60 1011.84 1013.02 1014.31 1015.43 1016.86 1018.28 1019.47 1020.55 1021.59 1022.39 1023.23 1023.99 1024.70 1025.38 1025.93 1026.36 1027.01 1027.62 1028.21 1028.74 1029.28 1029.80 1030.38 1030.97 1031.22 1031.82 1032.25 1032.17
1010.66 1010.93 1011.72 1012.07 1010.99 1010.56 1011.87 1011.61 1011.57 1011.70 1011.30 1010.08 1008.84 1007.39 1007.10 1008.10 1010.15 1011.63 1013.22 1014.66 1016.03 1017.44 1018.79 1019.97 1021.18 1022.23 1023.11 1023.89 1024.53 1025.19 1025.77 1026.39 1027.13 1027.82 1028.45 1029.16 1029.72 1030.20 1030.62 1030.97 1031.40 1031.90 1032.43 1032.67
1010.65 1011.34 1011.15 1010.62 1010.51 1010.54 1010.14 1009.93 1010.52 1010.28 1010.28 1009.77 1009.05 1007.21 1007.82 1008.60 1009.57 1011.39 1012.89 1014.35 1015.90 1017.17 1018.33 1019.54 1020.76 1021.90 1022.84 1023.69 1024.39 1025.05 1025.75 1026.49 1027.04 1027.67 1028.42 1029.14 1029.91 1030.44 1030.73 1031.13 1031.61 1032.15 1032.83 1033.19
1011.28 1012.04 1011.77 1011.43 1011.46 1011.35 1010.46 1009.81 1009.55 1009.64 1009.74 1008.67 1008.86 1007.41 1008.62 1009.21 1009.77 1010.98 1012.35 1013.85 1015.32 1016.70 1018.02 1019.13 1020.28 1021.20 1022.11 1023.07 1023.96 1024.69 1025.46 1026.29 1027.06 1027.75 1028.51 1029.27 1029.90 1030.36 1030.90 1031.63 1032.26 1032.67 1033.17 1033.32
1011.56 1011.63 1011.01 1009.41 1008.43 1008.63 1009.83 1009.13 1009.29 1009.39 1009.12 1006.61 1007.07 1007.25 1008.42 1009.01 1009.63 1010.68 1011.68 1013.08 1014.48 1015.76 1016.89 1018.06 1019.27 1020.26 1021.37 1022.29 1023.40 1024.26 1025.09 1026.07 1026.97 1027.75 1028.52 1029.21 1030.00 1030.42 1031.18 1032.12 1032.35 1032.87 1033.26 1033.38
1011.78 1011.69 1011.40 1010.08 1009.95 1009.57 1009.65 1008.94 1008.77 1008.63 1006.80 1007.59 1005.18 1006.77 1007.11 1008.02 1009.04 1009.90 1011.17 1012.74 1014.00 1015.04 1016.12 1016.85 1018.00 1019.34 1020.67 1021.62 1022.90 1023.88 1024.94 1026.06 1026.93 1027.83 1028.69 1029.47 1030.15 1030.92 1031.72 1032.28 1032.52 1032.97 1033.35 1033.57
1012.15 1011.48 1011.56 1010.46 1010.31 1010.02 1009.99 1009.54 1008.42 1007.63 1007.03 1006.67 1006.14 1006.07 1006.85 1007.13 1008.68 1009.62 1010.63 1011.99 1013.06 1013.97 1014.75 1015.87 1017.15 1018.57 1019.95 1020.71 1021.92 1023.19 1024.37 1025.73 1026.62 1027.62 1028.64 1029.60 1030.39 1031.17 1032.06 1032.44 1032.72 1032.93 1033.09 1033.25
1012.36 1011.92 1011.45 1010.33 1010.54 1010.68 1010.10 1007.45 1007.97 1007.03 1006.82 1006.50 1006.50 1006.29 1007.28 1008.65 1009.23 1009.78 1010.61 1011.54 1012.19 1012.86 1013.86 1014.96 1015.89 1017.09 1018.85 1020.01 1021.32 1022.67 1024.03 1025.53 1026.64 1027.54 1028.67 1029.50 1030.56 1031.44 1031.95 1032.36 1032.55 1032.74 1032.97 1033.10
1012.34 1011.98 1011.34 1010.77 1011.29 1010.30 1007.95 1007.66 1006.73 1006.55 1006.68 1006.84 1007.62 1008.09 1008.21 1009.35 1009.81 1010.37 1010.76 1011.32 1011.93 1012.82 1013.71 1014.74 1015.91 1017.19 1018.51 1019.84 1021.15 1022.50 1023.95 1025.29 1026.43 1027.65 1028.62 1029.52 1030.68 1031.40 1031.85 1031.97 1032.35 1032.58 1032.79 1033.20
1012.64 1012.01 1011.55 1011.14 1010.55 1009.14 1008.44 1008.40 1008.22 1007.85 1007.29 1007.71 1008.08 1008.83 1009.61 1010.54 1011.35 1011.00 1011.10 1011.45 1011.65 1012.27 1013.13 1014.05 1015.19 1016.64 1018.29 1019.51 1020.78 1022.06 1023.65 1025.18 1026.23 1027.23 1028.35 1029.44 1030.49 1031.16 1031.41 1031.84 1032.21 1032.54 1032.97 1033.32
1012.72 1012.19 1011.32 1011.18 1010.22 1009.55 1008.34 1008.75 1008.83 1008.72 1008.61 1007.76 1008.29 1009.00 1009.61 1010.80 1011.23 1010.34 1010.97 1011.77 1012.32 1012.57 1013.35 1014.25 1015.38 1016.81 1018.32 1019.40 1020.50 1021.75 1023.38 1024.75 1025.92 1026.82 1027.97 1029.21 1030.29 1030.78 1031.14 1031.63 1032.07 1032.57 1032.98 1033.26
1012.21 1011.85 1010.98 1010.50 1009.75 1009.32 1008.70 1009.24 1009.85 1010.05 1008.85 1008.23 1008.46 1009.14 1009.95 1010.66 1010.46 1011.01 1011.63 1012.54 1013.15 1013.61 1014.36 1015.04 1016.01 1017.14 1018.28 1019.49 1020.42 1021.87 1023.10 1024.26 1025.39 1026.61 1027.91 1029.25 1030.01 1030.34 1031.02 1031.68 1032.05 1032.40 1032.74 1033.06
1010.25 1010.78 1010.73 1010.79 1010.31 1009.58 1008.95 1009.89 1009.98 1009.27 1009.06 1009.29 1009.58 1009.93 1010.31 1010.54 1011.20 1011.56 1012.19 1013.15 1013.99 1014.63 1015.49 1016.28 1017.11 1017.96 1019.03 1019.88 1020.53 1021.75 1022.86 1024.05 1025.26 1026.64 1028.05 1029.07 1029.61 1030.31 1031.05 1031.47 1031.93 1032.32 1032.65 1032.74
1010.24 1009.56 1009.74 1009.78 1009.35 1009.14 1009.30 1009.34 1009.35 1009.53 1009.54 1009.89 1009.94 1010.31 1010.61 1011.17 1011.64 1012.06 1012.73 1013.58 1014.42 1015.16 1016.12 1016.77 1017.42 1018.55 1019.57 1020.18 1020.70 1021.66 1022.84 1024.03 1025.39 1026.87 1028.02 1028.82 1029.65 1030.33 1030.76 1031.31 1031.78 1031.98 1032.02 1032.04
1009.98 1009.96 1009.79 1009.57 1009.46 1009.34 1009.48 1009.69 1009.92 1009.83 1009.99 1010.27 1010.61 1010.82 1011.24 1011.46 1011.96 1012.61 1013.39 1014.19 1014.90 1015.55 1016.34 1017.06 1017.82 1018.83 1019.73 1020.40 1021.01 1021.70 1022.91 1024.09 1025.52 1026.73 1027.76 1028.77 1029.64 1030.24 1030.71 1030.98 1031.16 1031.25 1031.21 1031.26
1009.86 1010.01 1009.86 1009.60 1009.56 1009.61 1009.42 1009.53 1009.78 1010.18 1010.68 1011.01 1011.21 1011.41 1011.52 1011.89 1012.44 1012.83 1013.68 1014.41 1015.12 1015.88 1016.64 1017.31 1017.95 1018.72 1019.48 1020.42 1021.22 1021.97 1022.84 1023.97 1025.22 1026.38 1027.49 1028.53 1029.18 1029.73 1029.97 1030.31 1030.36 1030.49 1030.59 1030.77
1009.20 1009.16 1009.27 1008.78 1008.62 1008.79 1008.75 1008.54 1009.15 1010.26 1010.61 1010.90 1011.21 1011.65 1011.89 1012.24 1012.69 1013.25 1013.91 1014.48 1015.21 1015.89 1016.54 1017.30 1018.00 1018.73 1019.43 1020.36 1021.16 1022.06 1022.82 1023.69 1024.77 1026.09 1027.11 1027.78 1028.33 1028.98 1029.32 1029.57 1029.83 1029.78 1029.86 1029.88
Thickness
5657 5652 5660 5669 5666 5673 5675 5666 5667 5678 5671 5657 5663 5668 5675 5660 5654 5656 5651 5645 5638 5631 5620 5616 5613 5607 5605 5603 5601 5600 5599 5596 5596 5596 5593 5591 5585 5581 5576 5571 5567 5565 5563 5562
5639 5644 5670 5669 5662 5660 5657 5651 5654 5666 5663 5641 5656 5659 5670 5663 5657 5654 5648 5640 5631 5619 5614 5608 5605 5598 5595 5592 5591 5589 5588 5587 5585 5585 5583 5580 5575 5569 5564 5559 5556 5552 5549 5547
5650 5667 5662 5656 5646 5641 5644 5643 5647 5645 5646 5638 5639 5647 5660 5667 5652 5638 5634 5631 5622 5614 5607 5599 5597 5592 5586 5583 5581 5580 5578 5577 5574 5572 5569 5565 5560 5555 5551 5546 5543 5540 5539 5536
5642 5659 5642 5643 5635 5636 5633 5650 5637 5633 5622 5622 5633 5636 5663 5670 5639 5630 5622 5617 5612 5606 5598 5591 5589 5586 5580 5576 5573 5572 5570 5568 5566 5564 5562 5558 5551 5544 5535 5529 5524 5521 5518 5516
5645 5633 5629 5628 5637 5633 5634 5631 5624 5621 5615 5616 5624 5608 5652 5655 5637 5635 5622 5612 5605 5595 5588 5584 5579 5573 5569 5566 5562 5559 5557 5555 5553 5551 5547 5543 5538 5532 5526 5521 5515 5510 5505 5500
5624 5616 5623 5629 5622 5624 5614 5607 5599 5597 5603 5600 5617 5618 5656 5651 5652 5645 5620 5609 5601 5588 5580 5572 5564 5559 5556 5553 5550 5547 5545 5542 5540 5537 5533 5527 5522 5516 5510 5504 5499 5494 5490 5486
5611 5613 5610 5611 5604 5598 5604 5600 5586 5581 5576 5595 5620 5621 5654 5651 5641 5641 5618 5605 5595 5585 5575 5563 5555 5550 5545 5541 5537 5534 5532 5529 5526 5523 5518 5514 5509 5502 5496 5490 5482 5477 5473 5467
5611 5609 5614 5612 5620 5611 5594 5599 5589 5576 5585 5607 5591 5609 5642 5622 5627 5625 5610 5597 5585 5574 5566 5556 5550 5545 5539 5534 5530 5526 5522 5517 5512 5508 5504 5499 5494 5487 5481 5476 5471 5465 5452 5446
5608 5611 5611 5614 5611 5609 5592 5586 5598 5560 5546 5571 5611 5623 5615 5607 5605 5610 5600 5587 5577 5568 5561 5550 5542 5535 5529 5524 5519 5513 5508 5504 5499 5494 5489 5484 5478 5473 5466 5457 5448 5440 5440 5435
5606 5594 5596 5591 5590 5595 5594 5599 5567 5552 5565 5576 5623 5627 5636 5603 5600 5598 5591 5584 5574 5564 5554 5546 5536 5530 5522 5515 5509 5502 5497 5492 5486 5480 5474 5467 5460 5453 5445 5438 5435 5427 5422 5420
5589 5586 5573 5574 5585 5594 5579 5582 5587 5588 5587 5590 5603 5630 5646 5638 5612 5601 5593 5581 5571 5559 5549 5540 5530 5520 5512 5504 5498 5492 5486 5480 5473 5466 5459 5451 5443 5437 5431 5426 5420 5414 5406 5402
5585 5568 5571 5581 5589 5590 5597 5594 5587 5580 5576 5588 5593 5623 5614 5613 5612 5596 5586 5574 5561 5551 5542 5532 5520 5510 5502 5493 5487 5480 5474 5466 5460 5453 5445 5436 5426 5420 5416 5411 5405 5398 5388 5381
5567 5542 5559 5556 5567 5563 5572 5587 5591 5590 5575 5583 5578 5614 5587 5592 5593 5586 5577 5566 5554 5542 5531 5521 5511 5503 5495 5486 5477 5470 5462 5453 5446 5438 5430 5422 5414 5408 5402 5392 5384 5377 5368 5362
5552 5537 5557 5589 5602 5590 5567 5577 5576 5573 5563 5597 5590 5603 5581 5580 5578 5573 5569 5559 5547 5536 5527 5518 5507 5499 5487 5479 5468 5459 5451 5442 5433 5424 5416 5408 5399 5393 5384 5373 5367 5357 5349 5341
5536 5528 5537 5563 5564 5554 5561 5571 5568 5561 5588 5568 5609 5585 5592 5582 5573 5567 5559 5549 5539 5528 5521 5514 5503 5491 5478 5470 5457 5448 5439 5428 5417 5409 5399 5390 5382 5372 5362 5353 5345 5337 5328 5320
5514 5528 5525 5541 5550 5537 5526 5548 5563 5569 5573 5574 5586 5586 5580 5586 5570 5562 5553 5541 5532 5526 5518 5508 5497 5482 5469 5462 5451 5440 5429 5414 5405 5395 5383 5372 5362 5352 5340 5331 5325 5318 5310 5303
5500 5511 5515 5537 5523 5501 5505 5549 5552 5565 5566 5569 5561 5579 5557 5545 5547 5546 5538 5533 5527 5522 5510 5501 5492 5481 5465 5455 5442 5429 5414 5400 5390 5379 5366 5356 5343 5330 5322 5314 5307 5300 5292 5284
5490 5497 5501 5516 5484 5508 5541 5529 5557 5555 5558 5555 5543 5534 5538 5533 5532 5524 5527 5521 5513 5505 5498 5487 5477 5467 5454 5441 5428 5414 5401 5386 5374 5360 5349 5338 5324 5313 5306 5300 5291 5283 5275 5264
5463 5485 5478 5492 5493 5516 5524 5516 5520 5524 5538 5532 5533 5527 5510 5491 5488 5505 5503 5503 5505 5497 5489 5481 5470 5456 5440 5427 5414 5402 5386 5369 5357 5346 5334 5321 5308 5299 5293 5282 5273 5265 5255 5244
5448 5455 5482 5463 5487 5499 5523 5488 5482 5494 5500 5513 5506 5509 5496 5482 5500 5521 5485 5479 5478 5477 5470 5461 5450 5436 5423 5411 5399 5385 5369 5356 5343 5332 5319 5306 5293 5284 5275 5266 5257 5247 5236 5226
5450 5451 5472 5469 5479 5484 5493 5471 5462 5476 5515 5488 5492 5483 5475 5482 5493 5476 5468 5460 5455 5450 5442 5437 5427 5416 5406 5392 5382 5368 5355 5343 5331 5317 5304 5289 5278 5270 5259 5248 5240 5230 5220 5210
5465 5456 5452 5455 5458 5467 5465 5450 5471 5476 5462 5465 5465 5466 5464 5465 5455 5451 5447 5440 5432 5426 5418 5409 5399 5392 5380 5371 5365 5353 5341 5327 5315 5301 5286 5273 5263 5254 5242 5233 5224 5213 5203 5196
5444 5460 5463 5462 5469 5436 5438 5442 5448 5445 5449 5446 5455 5451 5451 5442 5438 5434 5428 5422 5414 5406 5395 5388 5380 5367 5359 5352 5347 5336 5324 5311 5298 5282 5269 5259 5248 5238 5230 5219 5208 5199 5192 5185
5414 5413 5430 5436 5427 5427 5423 5427 5422 5428 5433 5432 5430 5431 5429 5427 5421 5412 5404 5396 5389 5383 5375 5367 5359 5350 5341 5334 5328 5322 5308 5295 5279 5266 5255 5243 5232 5223 5212 5204 5196 5189 5183 5177
5412 5401 5399 5407 5405 5406 5411 5411 5414 5412 5409 5407 5407 5408 5411 5410 5399 5394 5385 5378 5372 5365 5356 5349 5344 5338 5330 5319 5312 5303 5292 5278 5266 5254 5241 5229 5220 5209 5202 5193 5187 5180 5173 5165
5396 5399 5399 5410 5407 5409 5414 5414 5406 5396 5393 5393 5393 5389 5389 5388 5381 5375 5368 5362 5356 5350 5341 5333 5328 5320 5312 5302 5295 5284 5274 5264 5253 5239 5228 5220 5210 5200 5192 5185 5177 5170 5163 5156